• In Hungary
  • List of Countries
  • For 7 days
  • Water Temperature
  • Satellite Maps
  • Weather Map
  • News
  • Weather Widgets
  • user-avatar
    Login

    Hourly Weather Belopole

    Today, 15 November, Thursday

    Time Temperature Precipitation Wind Pressure Humidity
    00:00 -3°C° 0 mm 4 mps 756 mmHg 79%
    01:00 -3°C° 0 mm 4 mps 756 mmHg 81%
    02:00 -3°C° 0 mm 4 mps 756 mmHg 83%
    03:00 -3°C° 0 mm 4 mps 757 mmHg 84%
    04:00 -3°C° 0 mm 4 mps 757 mmHg 85%
    05:00 -3°C° 0 mm 4 mps 757 mmHg 87%
    06:00 -3°C° 0 mm 4 mps 757 mmHg 86%
    07:00 -3°C° 0 mm 4 mps 758 mmHg 86%
    08:00 -3°C° 0 mm 4 mps 758 mmHg 86%
    09:00 -2°C° 0 mm 4 mps 759 mmHg 80%
    10:00 -1°C° 0 mm 4 mps 759 mmHg 73%
    11:00 -1°C° 0 mm 4 mps 759 mmHg 67%
    12:00 0°C° 0 mm 4 mps 760 mmHg 63%
    13:00 0°C° 0 mm 4 mps 760 mmHg 60%
    14:00 0°C° 0 mm 4 mps 760 mmHg 56%
    15:00 -1°C° 0 mm 4 mps 760 mmHg 58%
    16:00 -2°C° 0 mm 4 mps 761 mmHg 59%
    17:00 -2°C° 0 mm 3 mps 761 mmHg 61%
    18:00 -2°C° 0 mm 3 mps 761 mmHg 60%
    19:00 -2°C° 0 mm 3 mps 762 mmHg 59%
    20:00 -4°C° 0 mm 4 mps 762 mmHg 58%
    21:00 -4°C° 0 mm 3 mps 763 mmHg 58%
    22:00 -4°C° 0 mm 3 mps 763 mmHg 59%
    23:00 -4°C° 0 mm 3 mps 763 mmHg 59%

    Tomorrow, 16 November, Friday

    Time Temperature Precipitation Wind Pressure Humidity
    00:00 -4°C° 0 mm 3 mps 763 mmHg 58%
    01:00 -4°C° 0 mm 4 mps 763 mmHg 57%
    02:00 -4°C° 0 mm 4 mps 764 mmHg 56%
    03:00 -5°C° 0 mm 4 mps 764 mmHg 54%
    04:00 -5°C° 0 mm 4 mps 764 mmHg 51%
    05:00 -5°C° 0 mm 4 mps 764 mmHg 48%
    06:00 -5°C° 0 mm 4 mps 764 mmHg 45%
    07:00 -5°C° 0 mm 5 mps 764 mmHg 42%
    08:00 -5°C° 0 mm 5 mps 765 mmHg 38%
    09:00 -4°C° 0 mm 5 mps 765 mmHg 34%
    10:00 -2°C° 0 mm 5 mps 765 mmHg 30%
    11:00 -1°C° 0 mm 5 mps 765 mmHg 25%
    12:00 -1°C° 0 mm 5 mps 765 mmHg 24%
    13:00 0°C° 0 mm 5 mps 765 mmHg 23%
    14:00 0°C° 0 mm 5 mps 765 mmHg 22%
    15:00 -1°C° 0 mm 5 mps 765 mmHg 25%
    16:00 -2°C° 0 mm 4 mps 765 mmHg 27%
    17:00 -3°C° 0 mm 4 mps 765 mmHg 29%
    18:00 -3°C° 0 mm 4 mps 765 mmHg 30%
    19:00 -4°C° 0 mm 4 mps 765 mmHg 30%
    20:00 -4°C° 0 mm 4 mps 766 mmHg 31%
    21:00 -4°C° 0 mm 4 mps 766 mmHg 31%
    22:00 -4°C° 0 mm 4 mps 766 mmHg 31%
    23:00 -4°C° 0 mm 4 mps 766 mmHg 30%

    Day after tomorrow, 17 November, Saturday

    Time Temperature Precipitation Wind Pressure Humidity
    00:00 -4°C° 0 mm 4 mps 766 mmHg 30%
    01:00 -5°C° 0 mm 4 mps 766 mmHg 29%
    02:00 -5°C° 0 mm 4 mps 766 mmHg 29%
    03:00 -5°C° 0 mm 3 mps 765 mmHg 29%
    04:00 -5°C° 0 mm 3 mps 765 mmHg 29%
    05:00 -5°C° 0 mm 3 mps 765 mmHg 29%
    06:00 -5°C° 0 mm 3 mps 765 mmHg 28%
    07:00 -5°C° 0 mm 3 mps 765 mmHg 27%
    08:00 -5°C° 0 mm 3 mps 765 mmHg 27%
    09:00 -4°C° 0 mm 3 mps 765 mmHg 25%
    10:00 -1°C° 0 mm 3 mps 764 mmHg 23%
    11:00 0°C° 0 mm 3 mps 764 mmHg 20%
    12:00 0°C° 0 mm 3 mps 763 mmHg 21%
    13:00 0°C° 0 mm 3 mps 763 mmHg 22%
    14:00 +2°C° 0 mm 2 mps 762 mmHg 22%
    15:00 +1°C° 0 mm 2 mps 762 mmHg 24%
    16:00 -2°C° 0 mm 2 mps 762 mmHg 26%
    17:00 -3°C° 0 mm 2 mps 761 mmHg 28%
    18:00 -3°C° 0 mm 2 mps 761 mmHg 27%
    19:00 -1°C° 0 mm 1 mps 760 mmHg 27%
    20:00 -2°C° 0 mm 1 mps 760 mmHg 27%
    21:00 -2°C° 0 mm 1 mps 759 mmHg 26%
    22:00 -2°C° 0 mm 1 mps 759 mmHg 26%
    23:00 -2°C° 0 mm 1 mps 758 mmHg 26%

    18 November, Sunday

    Time Temperature Precipitation Wind Pressure Humidity
    00:00 -2°C° 0 mm 1 mps 758 mmHg 26%
    01:00 -2°C° 0 mm 1 mps 757 mmHg 27%
    02:00 -4°C° 0 mm 2 mps 756 mmHg 27%
    03:00 -4°C° 0 mm 2 mps 756 mmHg 29%
    04:00 -4°C° 0 mm 2 mps 755 mmHg 31%
    05:00 -4°C° 0 mm 2 mps 754 mmHg 33%
    06:00 -3°C° 0 mm 2 mps 754 mmHg 37%
    07:00 -3°C° 0 mm 2 mps 753 mmHg 41%
    08:00 -4°C° 0 mm 3 mps 753 mmHg 45%
    09:00 -4°C° 0.1 mm 3 mps 752 mmHg 51%
    10:00 -2°C° 0.1 mm 3 mps 752 mmHg 57%
    11:00 -2°C° 0.1 mm 3 mps 751 mmHg 62%
    12:00 -2°C° 0.1 mm 3 mps 751 mmHg 66%
    13:00 -2°C° 0.1 mm 3 mps 751 mmHg 69%
    14:00 -1°C° 0.1 mm 3 mps 750 mmHg 72%
    15:00 -2°C° 0.2 mm 3 mps 750 mmHg 75%
    16:00 -2°C° 0.2 mm 2 mps 750 mmHg 78%
    17:00 -2°C° 0.2 mm 2 mps 750 mmHg 82%
    18:00 -2°C° 0.1 mm 2 mps 750 mmHg 82%
    19:00 -2°C° 0.1 mm 2 mps 750 mmHg 83%
    20:00 -3°C° 0.1 mm 2 mps 750 mmHg 83%
    21:00 -3°C° 0 mm 2 mps 750 mmHg 82%
    22:00 -3°C° 0 mm 2 mps 750 mmHg 82%
    23:00 -3°C° 0 mm 2 mps 750 mmHg 81%

    19 November, Monday

    Time Temperature Precipitation Wind Pressure Humidity
    00:00 -3°C° 0.1 mm 2 mps 750 mmHg 79%
    01:00 -2°C° 0.1 mm 2 mps 751 mmHg 78%
    02:00 -2°C° 0.1 mm 2 mps 751 mmHg 77%
    03:00 -2°C° 0 mm 3 mps 751 mmHg 74%
    04:00 -2°C° 0 mm 3 mps 751 mmHg 70%
    05:00 -2°C° 0 mm 3 mps 752 mmHg 67%
    06:00 -2°C° 0 mm 3 mps 752 mmHg 64%
    07:00 -2°C° 0 mm 3 mps 753 mmHg 61%
    08:00 -2°C° 0 mm 3 mps 753 mmHg 57%
    09:00 -2°C° 0 mm 3 mps 753 mmHg 54%
    10:00 -1°C° 0 mm 3 mps 754 mmHg 51%
    11:00 0°C° 0 mm 3 mps 754 mmHg 48%
    12:00 0°C° 0 mm 3 mps 754 mmHg 48%
    13:00 0°C° 0 mm 3 mps 755 mmHg 48%
    14:00 0°C° 0 mm 3 mps 755 mmHg 49%
    15:00 -1°C° 0 mm 3 mps 755 mmHg 51%
    16:00 -2°C° 0 mm 3 mps 755 mmHg 53%
    17:00 -2°C° 0 mm 3 mps 755 mmHg 56%
    18:00 -4°C° 0 mm 3 mps 755 mmHg 56%
    19:00 -4°C° 0 mm 3 mps 756 mmHg 55%
    20:00 -4°C° 0 mm 3 mps 756 mmHg 55%
    21:00 -4°C° 0 mm 3 mps 756 mmHg 55%
    22:00 -4°C° 0 mm 3 mps 756 mmHg 55%
    23:00 -4°C° 0 mm 3 mps 756 mmHg 55%

    20 November, Tuesday

    Time Temperature Precipitation Wind Pressure Humidity
    00:00 -5°C° 0 mm 3 mps 756 mmHg 56%
    01:00 -5°C° 0 mm 3 mps 756 mmHg 57%
    02:00 -5°C° 0 mm 3 mps 756 mmHg 58%
    03:00 -5°C° 0 mm 3 mps 756 mmHg 61%
    04:00 -5°C° 0 mm 4 mps 756 mmHg 64%
    05:00 -5°C° 0 mm 4 mps 756 mmHg 67%
    06:00 -5°C° 0 mm 4 mps 756 mmHg 72%
    07:00 -5°C° 0 mm 4 mps 756 mmHg 77%
    08:00 -6°C° 0 mm 5 mps 756 mmHg 82%
    09:00 -5°C° 0 mm 5 mps 756 mmHg 81%
    10:00 -4°C° 0 mm 5 mps 756 mmHg 81%
    11:00 -2°C° 0 mm 5 mps 756 mmHg 80%
    12:00 -2°C° 0 mm 5 mps 756 mmHg 80%
    13:00 -2°C° 0 mm 5 mps 756 mmHg 79%
    14:00 -1°C° 0 mm 4 mps 755 mmHg 79%
    15:00 -2°C° 0 mm 4 mps 755 mmHg 82%
    16:00 -2°C° 0 mm 4 mps 755 mmHg 84%
    17:00 -2°C° 0 mm 4 mps 755 mmHg 86%
    18:00 -2°C° 0 mm 4 mps 755 mmHg 87%
    19:00 -2°C° 0 mm 4 mps 755 mmHg 88%
    20:00 -2°C° 0 mm 4 mps 755 mmHg 89%
    21:00 -2°C° 0 mm 4 mps 755 mmHg 91%
    22:00 -3°C° 0 mm 4 mps 755 mmHg 92%
    23:00 -3°C° 0 mm 4 mps 755 mmHg 94%
    Show more